Вернуться в каталог

DELTA 2 R/B(2)

АктивенGTO
NORAD 25548·ROCKET BODY·🇺🇸 United States

Запущен Nov 22, 1998 с Cape Canaveral Space Force Station

Loading…

TLE

УстаревшееSource: Space-Track

Эпоха: Sep 6, 2026, 12:20 UTC

1 25548U 98068C   26249.51401279  .00000071  00000-0  00000+0 0  9994
2 25548  19.1188 175.6775 7000049 276.8634  14.7158  2.15168677218536

Отслеживайте DELTA 2 R/B(2) в реальном времени с AllMySat

Download on the App Store